Location: Newark
(34.5992°S, 58.3747°W)
Time: 22:49:41
(UTC+00:00)

STARLINK 1023 - Pass Details

Date: 08 December 2019
Orbit: 345 x 354 km, 53.0° (Epoch: 18 January)

Event Time Altitude Azimuth Distance (km) Brightness Sun altitude
Rises 00:07:57 0° 242° (WSW) 2,241 8.5 -13.0°
Reaches altitude 10° 00:10:25 10° 262° (W) 1,390 6.6 -13.4°
Maximum altitude 00:12:36 18° 307° (NW) 1,021 5.1 -13.7°
Enters shadow 00:14:32 11° 348° (NNW) 1,314 5.3 -14.0°
